Time,TemperatureF,DewpointF,PressureIn,WindDirection,WindDirectionDegrees,WindSpeedMPH,WindSpeedGustMPH,Humidity,HourlyPrecipIn,Conditions,Clouds,dailyrainin,SoftwareType,DateUTC
2013-01-26 00:03:00,22.8,18.0,30.09,SSW,213,0.0,3.0,83,0.00,,,0.00,weatherlink.com 1.10,2013-01-26 05:03:00,
2013-01-26 00:19:00,22.9,19.0,30.09,NNW,327,0.0,2.0,84,0.00,,,0.00,weatherlink.com 1.10,2013-01-26 05:19:00,
2013-01-26 00:34:00,23.1,19.0,30.09,SSW,209,2.0,3.0,83,0.00,,,0.00,weatherlink.com 1.10,2013-01-26 05:34:00,
2013-01-26 00:49:00,23.2,19.0,30.09,West,271,0.0,3.0,83,0.00,,,0.00,weatherlink.com 1.10,2013-01-26 05:49:00,
2013-01-26 01:04:00,23.4,19.0,30.10,SW,217,0.0,4.0,84,0.00,,,0.00,weatherlink.com 1.10,2013-01-26 06:04:00,
2013-01-26 01:19:00,23.6,20.0,30.10,NW,311,0.0,5.0,84,0.00,,,0.00,weatherlink.com 1.10,2013-01-26 06:19:00,
2013-01-26 01:34:00,23.9,20.0,30.09,WNW,283,0.0,2.0,84,0.00,,,0.00,weatherlink.com 1.10,2013-01-26 06:34:00,
2013-01-26 01:49:00,24.2,20.0,30.09,NW,304,0.0,3.0,84,0.00,,,0.00,weatherlink.com 1.10,2013-01-26 06:49:00,
2013-01-26 02:05:00,24.5,20.0,30.09,NW,304,1.0,3.0,84,0.00,,,0.00,weatherlink.com 1.10,2013-01-26 07:05:00,
2013-01-26 02:19:00,24.8,21.0,30.09,WNW,298,1.0,3.0,84,0.00,,,0.00,weatherlink.com 1.10,2013-01-26 07:19:00,
2013-01-26 02:35:00,25.1,21.0,30.09,West,275,1.0,3.0,84,0.00,,,0.00,weatherlink.com 1.10,2013-01-26 07:35:00,
2013-01-26 02:50:00,25.2,21.0,30.10,WNW,298,0.0,4.0,83,0.00,,,0.00,weatherlink.com 1.10,2013-01-26 07:50:00,
2013-01-26 03:05:00,25.4,21.0,30.10,NW,309,0.0,4.0,83,0.00,,,0.00,weatherlink.com 1.10,2013-01-26 08:05:00,
2013-01-26 03:20:00,25.7,21.0,30.09,NW,309,0.0,2.0,83,0.00,,,0.00,weatherlink.com 1.10,2013-01-26 08:20:00,
2013-01-26 03:35:00,25.9,21.0,30.10,WNW,296,1.0,3.0,83,0.00,,,0.00,weatherlink.com 1.10,2013-01-26 08:35:00,
2013-01-26 03:50:00,26.0,21.0,30.11,WNW,296,1.0,4.0,82,0.00,,,0.00,weatherlink.com 1.10,2013-01-26 08:50:00,
2013-01-26 04:05:00,26.0,21.0,30.12,NW,313,0.0,4.0,81,0.00,,,0.00,weatherlink.com 1.10,2013-01-26 09:05:00,
2013-01-26 04:20:00,26.0,21.0,30.12,WNW,298,0.0,6.0,80,0.00,,,0.00,weatherlink.com 1.10,2013-01-26 09:20:00,
2013-01-26 04:35:00,26.1,20.0,30.13,WNW,300,4.0,4.0,79,0.00,,,0.00,weatherlink.com 1.10,2013-01-26 09:35:00,
2013-01-26 04:51:00,26.2,20.0,30.13,WNW,290,1.0,5.0,77,0.00,,,0.00,weatherlink.com 1.10,2013-01-26 09:51:00,
2013-01-26 05:06:00,26.2,20.0,30.14,West,271,1.0,8.0,77,0.00,,,0.00,weatherlink.com 1.10,2013-01-26 10:06:00,
2013-01-26 05:21:00,26.2,20.0,30.15,WNW,300,0.0,6.0,76,0.00,,,0.00,weatherlink.com 1.10,2013-01-26 10:21:00,
2013-01-26 05:36:00,26.2,20.0,30.15,WNW,293,4.0,7.0,76,0.00,,,0.00,weatherlink.com 1.10,2013-01-26 10:36:00,
2013-01-26 05:51:00,26.1,19.0,30.15,NW,306,4.0,6.0,73,0.00,,,0.00,weatherlink.com 1.10,2013-01-26 10:51:00,
2013-01-26 06:06:00,26.1,19.0,30.16,NW,304,2.0,7.0,73,0.00,,,0.00,weatherlink.com 1.10,2013-01-26 11:06:00,
2013-01-26 06:21:00,26.0,18.0,30.17,WNW,300,4.0,4.0,73,0.00,,,0.00,weatherlink.com 1.10,2013-01-26 11:21:00,
2013-01-26 06:36:00,25.9,18.0,30.17,WNW,300,0.0,5.0,72,0.00,,,0.00,weatherlink.com 1.10,2013-01-26 11:36:00,
2013-01-26 06:51:00,25.9,18.0,30.18,NW,318,3.0,6.0,72,0.00,,,0.00,weatherlink.com 1.10,2013-01-26 11:51:00,
2013-01-26 07:07:00,25.7,18.0,30.18,NW,310,3.0,7.0,71,0.00,,,0.00,weatherlink.com 1.10,2013-01-26 12:07:00,
2013-01-26 07:22:00,25.6,18.0,30.19,NW,304,1.0,4.0,74,0.00,,,0.00,weatherlink.com 1.10,2013-01-26 12:22:00,
2013-01-26 07:37:00,25.5,18.0,30.20,WSW,258,2.0,2.0,73,0.00,,,0.00,weatherlink.com 1.10,2013-01-26 12:37:00,
2013-01-26 07:52:00,25.4,18.0,30.20,NW,314,2.0,4.0,73,0.00,,,0.00,weatherlink.com 1.10,2013-01-26 12:52:00,
2013-01-26 08:08:00,25.6,18.0,30.20,WNW,298,2.0,3.0,73,0.00,,,0.00,weatherlink.com 1.10,2013-01-26 13:08:00,
2013-01-26 08:22:00,25.8,18.0,30.20,NW,309,0.0,4.0,73,0.00,,,0.00,weatherlink.com 1.10,2013-01-26 13:22:00,
2013-01-26 08:37:00,26.2,18.0,30.20,NW,310,2.0,5.0,72,0.00,,,0.00,weatherlink.com 1.10,2013-01-26 13:37:00,
2013-01-26 08:52:00,26.5,19.0,30.21,NW,317,1.0,4.0,72,0.00,,,0.00,weatherlink.com 1.10,2013-01-26 13:52:00,
2013-01-26 09:07:00,26.9,19.0,30.22,NW,322,1.0,4.0,71,0.00,,,0.00,weatherlink.com 1.10,2013-01-26 14:07:00,
2013-01-26 09:23:00,27.4,19.0,30.22,NW,312,4.0,5.0,70,0.00,,,0.00,weatherlink.com 1.10,2013-01-26 14:23:00,
2013-01-26 09:38:00,28.0,20.0,30.23,NW,311,1.0,4.0,71,0.00,,,0.00,weatherlink.com 1.10,2013-01-26 14:38:00,
2013-01-26 09:53:00,28.2,19.0,30.23,WNW,297,1.0,4.0,69,0.00,,,0.00,weatherlink.com 1.10,2013-01-26 14:53:00,
2013-01-26 10:08:00,28.3,20.0,30.24,NW,325,2.0,4.0,70,0.00,,,0.00,weatherlink.com 1.10,2013-01-26 15:08:00,
2013-01-26 10:23:00,28.4,19.0,30.25,NW,314,1.0,6.0,67,0.00,,,0.00,weatherlink.com 1.10,2013-01-26 15:23:00,
2013-01-26 10:38:00,28.6,19.0,30.25,NW,311,1.0,5.0,68,0.00,,,0.00,weatherlink.com 1.10,2013-01-26 15:38:00,
2013-01-26 10:53:00,29.0,19.0,30.25,NW,306,3.0,5.0,67,0.00,,,0.00,weatherlink.com 1.10,2013-01-26 15:53:00,
2013-01-26 11:08:00,29.4,20.0,30.25,WNW,296,4.0,6.0,67,0.00,,,0.00,weatherlink.com 1.10,2013-01-26 16:08:00,
2013-01-26 11:23:00,30.1,20.0,30.25,NW,325,2.0,5.0,66,0.00,,,0.00,weatherlink.com 1.10,2013-01-26 16:23:00,
2013-01-26 11:38:00,30.4,19.0,30.25,NW,309,2.0,6.0,64,0.00,,,0.00,weatherlink.com 1.10,2013-01-26 16:38:00,
2013-01-26 11:53:00,30.2,18.0,30.25,WNW,286,2.0,7.0,62,0.00,,,0.00,weatherlink.com 1.10,2013-01-26 16:53:00,
2013-01-26 12:08:00,30.8,20.0,30.24,WSW,253,2.0,7.0,65,0.00,,,0.00,weatherlink.com 1.10,2013-01-26 17:08:00,
2013-01-26 12:23:00,31.1,20.0,30.23,WNW,300,0.0,6.0,64,0.00,,,0.00,weatherlink.com 1.10,2013-01-26 17:23:00,
2013-01-26 12:38:00,31.8,21.0,30.23,North,350,2.0,4.0,64,0.00,,,0.00,weatherlink.com 1.10,2013-01-26 17:38:00,
2013-01-26 12:53:00,32.1,20.0,30.22,WNW,288,1.0,5.0,62,0.00,,,0.00,weatherlink.com 1.10,2013-01-26 17:53:00,
2013-01-26 13:08:00,31.9,20.0,30.21,West,281,0.0,5.0,62,0.01,,,0.01,weatherlink.com 1.10,2013-01-26 18:08:00,
2013-01-26 13:23:00,32.0,20.0,30.21,NW,305,3.0,6.0,61,0.01,,,0.01,weatherlink.com 1.10,2013-01-26 18:23:00,
2013-01-26 13:38:00,32.5,20.0,30.21,SW,217,3.0,6.0,60,0.01,,,0.01,weatherlink.com 1.10,2013-01-26 18:38:00,
2013-01-26 13:53:00,32.7,20.0,30.21,WNW,298,0.0,6.0,60,0.01,,,0.01,weatherlink.com 1.10,2013-01-26 18:53:00,
2013-01-26 14:08:00,33.3,21.0,30.21,SSW,202,3.0,3.0,62,0.00,,,0.01,weatherlink.com 1.10,2013-01-26 19:08:00,
2013-01-26 14:23:00,33.6,20.0,30.21,West,271,0.0,5.0,59,0.00,,,0.01,weatherlink.com 1.10,2013-01-26 19:23:00,
2013-01-26 14:38:00,33.9,19.0,30.22,WNW,293,4.0,9.0,55,0.00,,,0.01,weatherlink.com 1.10,2013-01-26 19:38:00,
2013-01-26 14:53:00,34.0,20.0,30.23,WNW,294,1.0,5.0,58,0.00,,,0.01,weatherlink.com 1.10,2013-01-26 19:53:00,
2013-01-26 15:08:00,33.6,20.0,30.23,WNW,299,1.0,6.0,59,0.00,,,0.01,weatherlink.com 1.10,2013-01-26 20:08:00,
2013-01-26 15:23:00,32.9,20.0,30.24,WNW,294,0.0,5.0,60,0.00,,,0.01,weatherlink.com 1.10,2013-01-26 20:23:00,
2013-01-26 15:38:00,32.4,20.0,30.24,WNW,296,0.0,5.0,60,0.00,,,0.01,weatherlink.com 1.10,2013-01-26 20:38:00,
2013-01-26 15:53:00,32.2,21.0,30.24,NW,304,0.0,5.0,64,0.00,,,0.01,weatherlink.com 1.10,2013-01-26 20:53:00,
2013-01-26 16:08:00,32.3,21.0,30.25,NW,324,0.0,2.0,63,0.00,,,0.01,weatherlink.com 1.10,2013-01-26 21:08:00,
2013-01-26 16:23:00,32.1,19.0,30.25,NW,310,2.0,5.0,58,0.00,,,0.01,weatherlink.com 1.10,2013-01-26 21:23:00,
2013-01-26 16:38:00,31.9,18.0,30.26,WNW,300,0.0,6.0,58,0.00,,,0.01,weatherlink.com 1.10,2013-01-26 21:38:00,
2013-01-26 16:53:00,31.7,19.0,30.27,WNW,300,1.0,6.0,60,0.00,,,0.01,weatherlink.com 1.10,2013-01-26 21:53:00,
2013-01-26 17:08:00,31.1,20.0,30.27,NW,306,2.0,3.0,63,0.00,,,0.01,weatherlink.com 1.10,2013-01-26 22:08:00,
2013-01-26 17:23:00,30.5,20.0,30.28,NW,306,0.0,3.0,64,0.00,,,0.01,weatherlink.com 1.10,2013-01-26 22:23:00,
2013-01-26 17:38:00,30.1,20.0,30.29,NW,306,0.0,3.0,66,0.00,,,0.01,weatherlink.com 1.10,2013-01-26 22:38:00,
2013-01-26 17:53:00,29.6,20.0,30.29,NW,306,1.0,3.0,67,0.00,,,0.01,weatherlink.com 1.10,2013-01-26 22:53:00,
2013-01-26 18:08:00,29.4,20.0,30.30,NW,310,1.0,3.0,67,0.00,,,0.01,weatherlink.com 1.10,2013-01-26 23:08:00,
2013-01-26 18:23:00,29.2,19.0,30.31,WNW,292,0.0,4.0,67,0.00,,,0.01,weatherlink.com 1.10,2013-01-26 23:23:00,
2013-01-26 18:39:00,28.9,20.0,30.31,WNW,292,0.0,3.0,69,0.00,,,0.01,weatherlink.com 1.10,2013-01-26 23:39:00,
2013-01-26 18:54:00,28.7,20.0,30.32,WNW,292,0.0,2.0,69,0.00,,,0.01,weatherlink.com 1.10,2013-01-26 23:54:00,
2013-01-26 19:09:00,28.8,20.0,30.32,WNW,292,2.0,3.0,70,0.00,,,0.01,weatherlink.com 1.10,2013-01-27 00:09:00,
2013-01-26 19:24:00,28.9,20.0,30.33,WNW,292,0.0,3.0,70,0.00,,,0.01,weatherlink.com 1.10,2013-01-27 00:24:00,
2013-01-26 19:39:00,28.8,20.0,30.34,WNW,292,0.0,2.0,70,0.00,,,0.01,weatherlink.com 1.10,2013-01-27 00:39:00,
2013-01-26 19:54:00,28.9,20.0,30.34,WNW,298,1.0,3.0,68,0.00,,,0.01,weatherlink.com 1.10,2013-01-27 00:54:00,
2013-01-26 20:09:00,29.0,19.0,30.34,NW,305,0.0,3.0,67,0.00,,,0.01,weatherlink.com 1.10,2013-01-27 01:09:00,
2013-01-26 20:24:00,28.9,19.0,30.35,NW,305,0.0,4.0,67,0.00,,,0.01,weatherlink.com 1.10,2013-01-27 01:24:00,
2013-01-26 20:39:00,28.7,19.0,30.36,NW,305,2.0,2.0,68,0.00,,,0.01,weatherlink.com 1.10,2013-01-27 01:39:00,
2013-01-26 20:54:00,28.7,20.0,30.36,NW,309,0.0,4.0,69,0.00,,,0.01,weatherlink.com 1.10,2013-01-27 01:54:00,
2013-01-26 21:09:00,28.4,20.0,30.37,NW,309,0.0,2.0,70,0.00,,,0.01,weatherlink.com 1.10,2013-01-27 02:09:00,
2013-01-26 21:24:00,27.9,20.0,30.38,NW,309,0.0,2.0,71,0.00,,,0.01,weatherlink.com 1.10,2013-01-27 02:24:00,
2013-01-26 21:39:00,27.3,20.0,30.39,NW,309,0.0,2.0,73,0.00,,,0.01,weatherlink.com 1.10,2013-01-27 02:39:00,
2013-01-26 21:54:00,26.6,19.0,30.39,NW,309,0.0,1.0,74,0.00,,,0.01,weatherlink.com 1.10,2013-01-27 02:54:00,
2013-01-26 22:09:00,26.4,20.0,30.40,NW,309,0.0,0.0,75,0.00,,,0.01,weatherlink.com 1.10,2013-01-27 03:09:00,
2013-01-26 22:24:00,26.4,20.0,30.41,NW,309,0.0,0.0,76,0.00,,,0.01,weatherlink.com 1.10,2013-01-27 03:24:00,
2013-01-26 22:39:00,26.1,20.0,30.42,NW,309,0.0,0.0,76,0.00,,,0.01,weatherlink.com 1.10,2013-01-27 03:39:00,
2013-01-26 22:54:00,25.7,19.0,30.42,NW,309,0.0,0.0,76,0.00,,,0.01,weatherlink.com 1.10,2013-01-27 03:54:00,
2013-01-26 23:09:00,25.2,19.0,30.43,NW,309,0.0,0.0,78,0.00,,,0.01,weatherlink.com 1.10,2013-01-27 04:09:00,
2013-01-26 23:24:00,24.7,19.0,30.44,NW,309,0.0,0.0,79,0.00,,,0.01,weatherlink.com 1.10,2013-01-27 04:24:00,
2013-01-26 23:39:00,24.3,19.0,30.44,NW,309,0.0,0.0,80,0.00,,,0.01,weatherlink.com 1.10,2013-01-27 04:39:00,
2013-01-26 23:54:00,23.7,19.0,30.44,NW,309,0.0,0.0,81,0.00,,,0.01,weatherlink.com 1.10,2013-01-27 04:54:00,